FW7026 Weather Reports


Display with metric or nautical units.
time (UTC)temp
F
wind
direction
speed
MPH
gust
MPH
rain 1hr
in
rain 24hr
in
rain mn
in
humidity
%
barometer
mb
20260503203448 41 238 0.0 0.0 0.00 0.32 0.32 91 1001.2
20260503202944 41 353 0.0 0.0 0.07 0.32 0.32 91 1001.6
20260503202443 41 250 0.0 0.0 0.07 0.32 0.32 91 1001.6
20260503201941 41 50 0.0 0.0 0.00 0.31 0.31 91 1001.6
20260503201438 41 9 0.0 0.0 0.00 0.31 0.31 91 1001.9
20260503200936 41 327 0.0 0.0 0.00 0.31 0.31 91 1001.6
20260503200432 41 11 0.0 0.0 0.07 0.31 0.31 91 1001.6
20260503195928 41 36 0.0 0.0 0.00 0.30 0.30 91 1001.9
20260503195426 41 97 0.0 0.0 0.00 0.30 0.30 91 1002.2
20260503194922 41 18 0.0 0.0 0.07 0.30 0.30 91 1001.9
20260503194419 41 2 0.0 0.0 0.00 0.30 0.30 91 1002.2
20260503193914 41 306 0.0 0.0 0.07 0.28 0.28 91 1002.2
20260503193410 41 16 0.0 0.0 0.07 0.28 0.28 91 1002.2
20260503192906 41 52 0.0 0.0 0.07 0.27 0.27 91 1002.2
20260503192402 41 354 0.0 0.0 0.07 0.27 0.27 91 1002.2
20260503191859 41 345 0.0 0.0 0.00 0.26 0.26 91 1002.6
20260503191356 41 349 0.0 0.0 0.00 0.26 0.26 91 1002.6
20260503190852 41 91 0.0 0.0 0.07 0.26 0.26 91 1002.6
20260503190349 41 10 0.0 0.0 0.07 0.26 0.26 91 1002.6
20260503185846 41 93 0.0 0.0 0.00 0.25 0.25 91 1002.6
20260503185343 41 106 0.0 0.0 0.07 0.25 0.25 91 1002.6
20260503184842 41 26 0.0 0.0 0.07 0.25 0.25 91 1002.6
20260503184339 41 342 0.0 0.0 0.00 0.24 0.24 91 1002.9
20260503183834 41 344 0.0 0.0 0.00 0.24 0.24 91 1002.9
20260503183332 41 8 0.0 0.0 0.00 0.24 0.24 91 1002.9
20260503182829 41 66 0.0 0.0 0.00 0.24 0.24 91 1002.9
20260503182328 41 6 0.0 0.0 0.00 0.24 0.24 91 1002.6
20260503181825 41 51 0.0 0.0 0.00 0.24 0.24 91 1002.9
20260503181322 41 11 0.0 0.0 0.00 0.24 0.24 91 1002.6
20260503180818 41 351 0.0 0.0 0.00 0.24 0.24 91 1002.6
20260503180317 41 137 0.0 0.0 0.07 0.24 0.24 91 1002.6
20260503175813 41 11 0.0 0.0 0.00 0.22 0.22 90 1002.6
20260503175311 41 6 0.0 2.0 0.00 0.22 0.22 91 1002.6
20260503174806 41 356 0.0 0.0 0.00 0.22 0.22 91 1002.6
20260503174305 41 322 0.0 0.0 0.00 0.22 0.22 91 1002.6
20260503173800 41 6 0.0 0.0 0.00 0.22 0.22 90 1002.6
20260503173255 41 71 0.0 0.0 0.07 0.22 0.22 90 1002.6
20260503172753 41 15 0.0 0.0 0.07 0.22 0.22 90 1002.6
20260503172250 41 17 0.0 0.0 0.00 0.21 0.21 90 1002.9
20260503171746 41 337 0.0 0.0 0.00 0.21 0.21 90 1002.9
20260503171244 41 4 0.0 0.0 0.00 0.21 0.21 90 1003.2
20260503170741 41 45 0.0 0.0 0.00 0.21 0.21 90 1003.2
20260503170237 41 14 0.0 0.0 0.07 0.21 0.21 90 1003.2
20260503160159 40 13 0.0 0.0 0.00 0.18 0.18 90 1003.9
20260503150629 40 81 0.0 0.0 0.00 0.15 0.15 90 1004.9
20260503150125 40 12 0.0 0.0 0.00 0.15 0.15 90 1004.9
20260503131019 38 143 0.0 0.0 0.00 0.13 0.13 92 1006.4
20260503130517 39 137 0.0 0.0 0.00 0.13 0.13 92 1006.4
20260503110413 38 178 0.0 0.0 0.07 0.08 0.08 92 1006.7
20260503090258 38 197 0.0 0.0 0.00 0.02 0.02 91 1007.4
20260503081231 38 190 0.0 0.0 0.00 0.01 0.01 91 1007.7
20260503080726 38 198 0.0 0.0 0.00 0.01 0.01 91 1007.4
20260503080224 38 198 0.0 0.0 0.00 0.01 0.01 91 1007.1
20260503072701 38 186 0.0 0.0 0.00 0.00 0.00 91 1007.7
20260503072157 38 195 0.0 0.0 0.00 0.00 0.00 91 1007.7
20260503071654 38 201 0.0 0.0 0.00 0.00 0.00 91 1008.1
20260503071151 38 205 0.0 0.0 0.00 0.00 0.00 91 1008.1
20260503070648 38 196 0.0 0.0 0.00 0.00 0.00 91 1007.7
20260503070146 38 206 0.0 0.0 0.00 0.00 0.00 91 1007.7
20260503060110 38 193 0.0 0.0 0.00 0.00 0.00 91 1008.4
20260503055102 38 201 0.0 0.0 0.00 0.00 0.00 91 1008.4
20260503054557 38 194 0.0 0.0 0.00 0.00 0.00 91 1008.4
20260503054054 38 193 0.0 0.0 0.00 0.00 0.00 91 1008.4
20260503053553 38 193 0.0 0.0 0.00 0.00 0.00 91 1008.4
20260503053050 38 191 0.0 0.0 0.00 0.00 0.00 91 1008.8
20260503052547 38 192 0.0 0.0 0.00 0.00 0.00 91 1008.8
20260503052043 38 189 0.0 0.0 0.00 0.00 0.00 91 1008.8
20260503051538 38 190 0.0 0.0 0.00 0.00 0.00 91 1008.8
20260503051037 38 198 0.0 0.0 0.00 0.00 0.00 91 1008.8
20260503050531 38 190 0.0 0.0 0.00 0.00 0.00 91 1009.1
20260503050030 38 194 0.0 0.0 0.00 0.00 0.00 91 1009.1
20260503045527 38 196 0.0 0.0 0.00 0.00 0.00 91 1009.1
20260503045024 38 190 0.0 0.0 0.00 0.00 0.00 91 1009.1
20260503044520 37 198 0.0 0.0 0.00 0.00 0.00 91 1009.1
20260503044018 37 198 0.0 0.0 0.00 0.00 0.00 91 1009.1
20260503043513 37 198 0.0 0.0 0.00 0.00 0.00 90 1009.1
20260503043010 37 198 0.0 0.0 0.00 0.00 0.00 90 1009.5
20260503042508 37 199 0.0 0.0 0.00 0.00 0.00 90 1009.1
20260503042003 37 196 0.0 0.0 0.00 0.00 0.00 90 1009.5
20260503041501 37 196 0.0 0.0 0.00 0.00 0.00 90 1009.5
20260503040959 37 197 0.0 0.0 0.00 0.00 0.00 90 1009.5
20260503040456 37 195 0.0 0.0 0.00 0.00 0.00 90 1009.5
20260503035953 37 199 0.0 0.0 0.00 0.00 0.00 90 1009.5
20260503035449 37 209 0.0 0.0 0.00 0.00 0.00 90 1009.5
20260503034947 37 201 0.0 0.0 0.00 0.00 0.00 90 1009.5
20260503034444 37 191 0.0 0.0 0.00 0.00 0.00 90 1009.5
20260503033941 37 202 0.0 0.0 0.00 0.00 0.00 90 1009.5
20260503033439 37 202 0.0 0.0 0.00 0.00 0.00 90 1009.5
20260503032937 37 191 0.0 0.0 0.00 0.00 0.00 89 1009.9
20260503032435 37 190 0.0 0.0 0.00 0.00 0.00 89 1009.9
20260503031932 37 201 0.0 0.0 0.00 0.00 0.00 89 1009.5
20260503031430 37 196 0.0 0.0 0.00 0.00 0.00 89 1009.9
20260503030926 37 196 0.0 0.0 0.00 0.00 0.00 89 1009.5
20260503030423 37 202 0.0 0.0 0.00 0.00 0.00 88 1009.9
20260503025919 37 199 0.0 0.0 0.00 0.00 0.00 88 1009.9
20260503025417 36 198 0.0 0.0 0.00 0.00 0.00 88 1009.5
20260503024914 37 198 0.0 0.0 0.00 0.00 0.00 87 1009.9
20260503024410 37 202 0.0 0.0 0.00 0.00 0.00 87 1009.9
20260503023907 37 218 0.0 0.0 0.00 0.00 0.00 87 1010.2
20260503023404 37 201 0.0 0.0 0.00 0.00 0.00 86 1009.9
20260503022901 37 206 0.0 0.0 0.00 0.00 0.00 85 1009.9
20260503022356 36 196 0.0 0.0 0.00 0.00 0.00 85 1009.9
20260503021852 36 192 0.0 0.0 0.00 0.00 0.00 84 1009.9
20260503021348 36 196 0.0 0.0 0.00 0.00 0.00 83 1010.2
20260503020846 36 201 0.0 0.0 0.00 0.00 0.00 82 1009.9
20260503020344 36 196 0.0 0.0 0.00 0.00 0.00 81 1009.9
20260503015840 37 194 0.0 0.0 0.00 0.00 0.00 80 1010.2
20260503015337 37 205 0.0 0.0 0.00 0.00 0.00 80 1010.2
20260503014833 37 196 0.0 0.0 0.00 0.00 0.00 79 1010.2
20260503014331 37 201 0.0 0.0 0.00 0.00 0.00 78 1010.2
20260503013828 38 171 0.0 0.0 0.00 0.00 0.00 78 1010.2
20260503013325 38 178 0.0 0.0 0.00 0.00 0.00 77 1010.2
20260503012822 39 200 0.0 0.0 0.00 0.00 0.00 77 1010.2
20260503012320 39 190 0.0 0.0 0.00 0.00 0.00 77 1010.2
20260503011816 39 188 0.0 0.0 0.00 0.00 0.00 76 1010.2
20260503011313 39 139 0.0 0.0 0.00 0.00 0.00 76 1010.2
20260503010809 40 193 0.0 0.0 0.00 0.00 0.00 76 1010.2
20260503010307 40 159 0.0 0.0 0.00 0.00 0.00 75 1010.2
20260503005804 40 160 0.0 0.0 0.00 0.00 0.00 75 1010.2
20260503005301 40 135 0.0 0.0 0.00 0.00 0.00 75 1010.2
20260503004756 40 201 0.0 0.0 0.00 0.00 0.00 75 1010.2
20260503004255 41 225 0.0 0.0 0.00 0.00 0.00 74 1010.2
20260503003752 41 122 0.0 0.0 0.00 0.00 0.00 73 1010.2
20260503003249 41 217 0.0 0.0 0.00 0.00 0.00 73 1010.2
20260503002745 41 178 0.0 0.0 0.00 0.00 0.00 72 1010.2
20260503002242 41 212 0.0 0.0 0.00 0.00 0.00 72 1010.2
20260503001739 41 159 0.0 0.0 0.00 0.00 0.00 72 1010.2
20260503001235 41 184 0.0 0.0 0.00 0.00 0.00 72 1010.2
20260503000733 42 254 0.0 0.0 0.00 0.00 0.00 72 1010.2
20260503000233 42 147 0.0 0.0 0.00 0.00 0.00 72 1010.2
20260502235727 42 99 0.0 0.0 0.00 0.00 0.00 72 1010.2
20260502235225 42 200 0.0 0.0 0.00 0.00 0.00 72 1010.2
20260502234721 42 161 0.0 0.0 0.00 0.00 0.00 72 1009.9
20260502234218 42 151 0.0 0.0 0.00 0.00 0.00 72 1009.9
20260502233714 42 115 0.0 0.0 0.00 0.00 0.00 72 1009.9
20260502233211 42 197 0.0 0.0 0.00 0.00 0.00 71 1009.9
20260502232707 42 194 0.0 0.0 0.00 0.00 0.00 71 1009.9
20260502232204 42 123 0.0 0.0 0.00 0.00 0.00 71 1010.2
20260502231701 43 191 0.0 0.0 0.00 0.00 0.00 69 1010.2
20260502231159 43 213 0.0 0.0 0.00 0.00 0.00 69 1009.9
20260502230657 43 207 0.0 0.0 0.00 0.00 0.00 69 1009.9
20260502230155 43 108 0.0 0.0 0.00 0.00 0.00 69 1009.9
20260502225650 43 164 0.0 0.0 0.00 0.00 0.00 68 1010.2
20260502225148 43 157 0.0 0.0 0.00 0.00 0.00 68 1010.2
20260502224644 43 224 0.0 0.0 0.00 0.00 0.00 68 1010.2
20260502224141 43 212 0.0 0.0 0.00 0.00 0.00 68 1010.2
20260502223639 43 245 0.0 0.0 0.00 0.00 0.00 68 1009.9
20260502223137 43 265 0.0 0.0 0.00 0.00 0.00 68 1010.2
20260502222634 43 164 0.0 0.0 0.00 0.00 0.00 69 1010.2
20260502222131 44 185 0.0 0.0 0.00 0.00 0.00 70 1010.2
20260502221626 44 138 0.0 0.0 0.00 0.00 0.00 70 1010.2
20260502221124 44 232 0.0 0.0 0.00 0.00 0.00 69 1010.2
20260502220620 44 197 0.0 0.0 0.00 0.00 0.00 67 1009.9
20260502220116 45 247 0.0 0.0 0.00 0.00 0.00 67 1010.2
20260502215613 45 282 0.0 0.0 0.00 0.00 0.00 66 1010.2
20260502215110 45 284 0.0 0.0 0.00 0.00 0.00 66 1010.2
20260502214607 45 178 0.0 0.0 0.00 0.00 0.00 67 1009.9
20260502214104 44 174 0.0 0.0 0.00 0.00 0.00 66 1010.2
20260502213601 44 217 0.0 0.0 0.00 0.00 0.00 66 1010.2
20260502213053 45 257 0.0 0.0 0.00 0.00 0.00 66 1010.2
20260502212552 45 240 0.0 0.0 0.00 0.00 0.00 66 1010.2
20260502212049 45 211 0.0 0.0 0.00 0.00 0.00 65 1010.2
20260502211544 45 221 0.0 0.0 0.00 0.00 0.00 64 1010.2
20260502211036 45 260 0.0 0.0 0.00 0.00 0.00 63 1010.2
20260502210533 46 254 0.0 0.0 0.00 0.00 0.00 59 1009.9
20260502210030 47 199 0.0 0.0 0.00 0.00 0.00 58 1009.9
20260502205526 48 193 0.0 0.0 0.00 0.00 0.00 54 1009.9
20260502205024 48 235 0.0 0.0 0.00 0.00 0.00 52 1009.5
20260502204521 49 195 0.0 0.0 0.00 0.00 0.00 51 1009.5
20260502204019 49 231 0.0 0.0 0.00 0.00 0.00 50 1009.5